Regional Weather Roundup
Issued by NWS

Home | Current Version | Previous Version | Graphics & Text | Print | Product List | Glossary On
Versions: 1 2 3 4 5 6 7 8 9 10 11 12 13 14 15 16 17 18 19 20 21 22 23 24 25 26 27 28 29 30 31 32 33 34 35 36 37 38 39 40 41 42 43 44 45 46 47 48 49 50
000
ASUS43 KBIS 192359
RWRND

NORTH DAKOTA REGIONAL WEATHER ROUNDUP
NATIONAL WEATHER SERVICE BISMARCK ND
600 PM CST FRI DEC 19 2014

NOTE: "FAIR" INDICATES FEW OR NO CLOUDS BELOW 12,000 FEET WITH NO
SIGNIFICANT WEATHER AND/OR OBSTRUCTIONS TO VISIBILITY.


NDZ001>003-009>011-017-200100-
NORTHWEST NORTH DAKOTA

CITY           SKY/WX    TMP DP  RH WIND       PRES   REMARKS
WILLISTON      FOG       23  21  92 N5        29.91S VSB 1/4 WCI  17
6HR MIN TEMP:  22; 6HR MAX TEMP:  27;

MINOT          CLOUDY    26  24  92 CALM      29.94S FOG
MINOT AFB      CLOUDY    25  25 100 SW2       29.94S FOG
$$

NDZ018>021-031>035-040>046-200100-
SOUTHWEST NORTH DAKOTA

CITY           SKY/WX    TMP DP  RH WIND       PRES   REMARKS
BISMARCK       CLEAR     26  23  88 E5        29.95R
6HR MIN TEMP:  26; 6HR MAX TEMP:  39;

DICKINSON      CLEAR     31  23  72 CALM      29.88R
GARRISON         N/A     28  26  92 SE3       29.93S
6HR MIN TEMP:  25; 6HR MAX TEMP:  28;

HETTINGER ARPT CLEAR     28  23  81 CALM      29.91S
$$

NDZ004>008-012>016-024-026-027-054-200100-
NORTHEAST NORTH DAKOTA

CITY           SKY/WX    TMP DP  RH WIND       PRES   REMARKS
GRAND FORKS    CLOUDY    29  28  96 S7        30.02S FOG
DEVILS LAKE    CLOUDY    28  19  69 SW3       29.96S
$$

NDZ022-023-025-028>030-036>039-047>053-200100-
SOUTHEAST NORTH DAKOTA

CITY           SKY/WX    TMP DP  RH WIND       PRES   REMARKS
FARGO          CLOUDY    32  28  85 S14       30.03S FOG
6HR MIN TEMP:  29; 6HR MAX TEMP:  32; 6HR PCP: TRACE;

$$




USA.gov is the U.S. government's official web portal to all federal, state and local government web resources and services.